Wind_Speed
8 8 8 8 8 8 7 7 6 6 5 4 3 3 3 3 3 3 3 4 5 6 7 7 7 7 6 6 6 6 6 6 7 6 6 7 7 7 7 7 7 7 8
9 8 8 8 7 7 7 7 6 6 5 4 4 4 3 3 3 4 4 5 6 6 6 6 6 7 6 6 6 6 6 6 6 6 6 6 6 6 6 6 7 7 8
9 8 8 8 7 7 7 6 6 6 5 5 5 5 4 3 3 3 3 4 5 5 5 6 7 7 7 6 6 6 6 6 6 6 6 6 6 6 6 7 7 7 7
9 9 8 8 7 7 7 6 5 5 5 5 4 4 4 4 3 3 3 3 4 5 6 6 6 6 6 6 6 6 6 6 5 6 6 6 6 6 6 6 7 7 7
9 9 8 8 7 7 7 6 5 5 4 4 4 4 4 4 4 4 4 5 5 5 5 6 6 6 6 6 6 6 6 6 6 5 5 6 6 6 6 7 7 7 6
9 9 8 8 7 7 6 6 5 5 5 4 4 4 4 4 4 4 5 6 6 5 5 6 5 6 6 6 6 7 7 6 6 6 6 6 7 7 7 7 7 6 6
9 9 8 7 7 7 6 6 5 5 4 4 4 4 4 4 5 5 5 6 6 5 5 5 5 6 6 7 7 7 6 6 6 6 6 7 8 8 8 7 6 6 5
9 9 8 8 7 7 6 6 5 4 4 4 4 4 4 4 4 5 5 5 5 5 6 5 6 6 6 7 7 7 6 6 7 7 7 7 7 7 8 7 6 6 5
9 8 8 7 7 6 6 5 5 5 4 4 4 4 4 4 4 4 5 5 5 5 5 6 6 6 6 7 7 7 7 7 8 8 7 7 7 8 7 7 7 6 6
10 9 8 7 6 6 5 5 4 4 4 4 4 4 3 4 4 4 4 4 5 5 6 6 7 7 7 7 7 7 7 7 7 7 6 6 7 7 7 7 7 6 6
10 9 8 7 6 5 4 4 4 4 4 4 3 3 3 3 3 3 3 4 5 5 6 6 6 7 8 8 8 8 7 7 7 7 6 6 6 7 7 7 6 6 6
11 9 8 8 6 5 4 4 3 4 3 3 3 3 3 2 3 2 3 4 5 5 6 6 7 7 8 8 7 7 6 6 6 6 6 6 7 7 7 6 6 6 5
11 10 9 8 7 5 4 4 3 3 3 3 2 2 2 2 3 3 3 4 5 5 5 6 6 6 7 7 6 6 5 5 6 6 6 6 6 6 6 5 5 5 4
12 11 10 9 7 6 4 3 3 2 2 2 2 2 2 3 3 3 3 4 4 5 5 5 6 6 6 5 5 5 5 5 5 6 5 5 6 5 5 5 4 3 3
13 12 11 9 7 6 4 3 3 2 2 2 2 2 2 2 2 3 3 3 4 5 5 5 5 5 5 4 4 4 4 4 5 5 5 5 5 4 4 4 3 3 3
14 13 12 10 8 6 4 3 2 2 2 2 2 1 1 2 2 2 3 4 4 5 5 4 4 4 4 4 4 3 3 4 5 4 4 4 3 3 3 3 3 2 2
14 14 13 12 9 7 5 3 2 1 1 1 1 1 1 2 2 2 3 4 4 4 4 4 4 4 3 3 3 2 2 3 4 4 3 3 3 2 2 2 2 3 3
14 14 13 12 10 8 6 4 2 1 1 1 1 1 1 2 2 3 3 4 4 5 5 4 3 3 3 3 2 2 2 3 3 3 3 3 2 2 2 3 3 4 4
15 14 14 13 11 9 7 4 2 1 0 1 1 1 1 2 2 4 4 4 5 5 4 4 4 4 4 3 3 3 3 3 3 3 3 3 3 4 4 4 4 5 6
17 15 14 13 11 10 8 6 3 1 0 1 1 1 1 2 2 4 4 5 5 5 5 5 5 5 5 4 4 4 4 4 4 4 4 5 5 5 5 6 7 7 7
17 16 14 14 12 11 9 6 5 3 1 1 2 2 2 2 2 3 5 5 5 5 5 5 6 6 6 6 5 5 6 6 5 6 6 6 6 7 7 8 8 8 9
17 16 15 14 13 11 10 8 5 4 2 2 3 3 3 3 3 3 5 6 6 6 6 7 7 7 7 7 7 7 7 7 8 8 8 8 9 9 9 10 10 10 11
16 16 15 13 12 11 10 8 7 5 4 2 2 3 3 4 4 4 5 6 7 7 8 8 8 8 9 9 9 9 9 10 10 10 10 10 10 11 11 11 12 13 13
16 15 15 13 13 12 10 9 7 6 5 3 3 4 4 4 5 5 5 6 7 8 8 9 10 10 10 11 11 11 11 11 11 12 12 13 13 13 14 14 14 14 15
15 15 14 13 13 12 11 10 8 7 6 4 4 4 4 4 5 6 6 7 7 8 9 9 10 11 11 12 12 12 13 13 13 14 14 15 14 15 15 15 16 16 16
15 15 14 13 13 12 11 10 8 7 6 5 4 4 4 5 6 7 7 8 9 9 10 11 11 11 11 12 13 13 14 14 14 14 15 15 15 16 16 17 17 18 18
Wind_Direction
66 71 72 71 68 65 59 55 53 52 51 51 63 63 62 77 76 81 103 113 118 125 137 140 141 142 143 138 135 134 130 121 117 120 121 121 118 120 122 122 119 122 120
66 69 72 72 69 65 60 59 59 57 55 50 57 58 66 83 86 95 105 111 115 115 119 128 136 137 136 128 127 128 128 123 119 120 122 125 125 122 119 118 120 118 118
64 67 69 70 69 67 64 61 61 59 57 51 50 51 57 68 83 91 101 115 116 114 115 119 126 129 131 128 127 126 127 126 123 119 125 125 127 125 126 128 125 122 123
60 63 65 66 66 66 63 59 57 56 56 55 52 51 56 70 84 90 100 113 121 121 117 119 121 123 126 128 128 130 134 130 126 124 131 130 130 125 128 135 133 126 124
56 58 61 64 65 65 63 60 58 57 55 52 55 57 61 74 81 92 98 112 124 126 121 117 116 119 124 127 128 129 131 134 134 129 132 135 135 132 130 131 132 132 127
52 55 58 61 62 64 63 62 61 57 50 53 64 63 65 69 81 92 100 111 114 117 118 115 112 114 123 127 126 128 129 132 132 132 129 131 137 135 132 132 132 132 129
52 54 55 59 62 62 61 63 65 59 54 59 69 69 68 70 77 86 106 117 112 113 116 117 114 114 118 120 122 124 131 136 136 132 129 132 136 136 136 136 133 131 126
55 54 53 54 57 59 60 63 65 60 61 66 71 74 74 81 85 92 107 112 107 106 106 106 109 112 116 119 121 121 123 125 133 133 128 130 135 138 137 136 134 128 125
54 51 51 52 55 57 60 63 67 66 67 68 76 80 80 83 93 106 101 106 106 105 101 103 112 112 116 119 120 118 119 118 127 130 130 130 135 138 137 137 132 128 128
48 48 49 49 53 56 58 62 67 68 72 74 79 84 82 85 95 106 106 110 108 105 101 104 109 110 118 119 119 120 121 119 121 128 130 133 139 141 138 135 132 129 130
43 41 41 39 42 53 62 69 71 68 73 76 80 78 77 83 97 105 112 117 119 113 107 108 111 110 117 118 116 115 117 120 117 120 120 127 136 141 140 133 131 132 133
40 37 34 34 33 49 58 67 73 68 69 72 77 82 77 82 99 109 121 117 119 119 115 113 112 113 115 116 115 114 117 117 116 120 123 126 134 138 140 138 134 135 139
38 37 35 30 32 50 53 59 62 64 61 64 70 79 83 92 104 112 135 128 123 126 122 120 118 115 115 117 116 117 122 123 125 127 125 128 134 137 141 143 142 141 142
34 33 33 30 37 46 45 56 60 63 60 58 73 85 99 113 119 122 150 149 136 129 127 122 123 120 117 120 119 121 129 130 133 138 134 127 133 136 141 147 148 147 151
31 30 30 35 39 44 46 51 62 58 56 81 85 107 122 127 127 131 140 149 145 138 136 130 126 124 121 125 123 125 134 137 137 136 134 130 132 135 142 151 155 157 162
28 27 28 29 39 43 47 56 59 59 61 78 97 117 146 152 147 144 151 152 157 156 154 149 140 136 138 133 133 138 138 139 142 142 141 140 145 149 157 168 179 185 197
25 26 24 27 31 37 48 54 62 94 105 103 98 97 145 159 172 181 159 162 167 168 168 164 155 151 148 140 138 143 147 149 152 159 162 165 172 183 193 201 210 223 236
26 26 24 24 26 30 37 38 40 62 144 137 126 132 156 167 185 188 180 179 177 179 181 180 174 171 169 168 168 166 165 168 176 183 186 197 214 224 225 235 245 256 260
27 26 25 21 23 20 20 22 33 47 149 171 173 191 192 192 199 196 194 197 194 193 194 196 194 198 200 205 209 203 189 188 200 209 216 229 243 246 250 260 262 269 274
27 25 24 22 22 19 17 21 26 21 20 180 210 212 212 209 208 197 198 203 202 204 206 208 211 214 218 220 220 222 220 216 219 229 239 247 255 262 263 266 265 272 277
24 26 27 25 23 21 20 20 15 16 347 249 246 228 228 228 223 209 208 206 209 212 216 222 225 227 228 228 230 231 235 234 235 240 245 253 260 265 267 267 268 270 273
21 24 25 26 26 23 21 19 14 6 338 288 262 248 239 235 232 223 222 223 224 228 232 237 238 239 240 240 241 242 244 244 248 250 253 257 261 264 268 272 269 270 273
19 19 20 22 22 21 19 17 14 11 352 328 286 256 245 238 238 241 233 237 239 240 243 245 244 246 245 247 248 248 250 252 254 257 259 262 264 269 271 272 272 271 274
17 17 17 20 20 18 17 14 11 6 351 330 293 264 248 243 245 248 243 245 249 248 250 251 250 249 249 250 252 251 253 255 256 258 261 263 265 267 269 270 270 272 274
16 16 16 17 17 16 15 14 11 4 350 335 305 279 264 256 252 254 255 256 259 258 258 258 255 252 252 254 256 255 257 259 262 263 263 264 265 266 268 269 271 272 273
15 15 13 15 14 14 13 9 3 358 350 337 325 303 282 273 269 264 262 265 265 263 261 261 259 258 259 259 257 257 260 264 265 265 267 266 269 271 270 270 271 273 276
Height
5891 5890 5890 5890 5890 5890 5889 5889 5889 5889 5888 5889 5888 5888 5888 5888 5887 5887 5887 5886 5886 5885 5885 5885 5886 5887 5888 5888 5888 5889 5889 5889 5889 5889 5890 5890 5891 5891 5891 5892 5892 5892 5892
5892 5892 5891 5891 5891 5891 5891 5890 5890 5890 5890 5890 5889 5889 5889 5888 5888 5888 5888 5887 5887 5887 5887 5887 5887 5888 5888 5889 5889 5889 5889 5890 5890 5890 5890 5891 5891 5892 5892 5892 5893 5893 5893
5893 5893 5892 5892 5892 5892 5892 5892 5891 5891 5891 5891 5890 5890 5889 5889 5889 5889 5889 5888 5888 5888 5888 5888 5888 5889 5889 5890 5890 5890 5890 5890 5891 5891 5891 5891 5892 5892 5893 5893 5894 5894 5894
5894 5894 5893 5893 5893 5893 5892 5892 5892 5892 5892 5891 5891 5890 5890 5890 5890 5890 5889 5889 5889 5889 5889 5889 5889 5890 5890 5890 5890 5890 5890 5891 5891 5891 5892 5892 5892 5893 5893 5894 5894 5895 5895
5895 5894 5894 5894 5893 5893 5893 5893 5893 5893 5892 5892 5892 5891 5891 5891 5890 5890 5890 5890 5890 5890 5890 5890 5890 5890 5890 5890 5890 5890 5890 5891 5891 5892 5892 5892 5893 5893 5894 5894 5895 5896 5896
5896 5895 5895 5895 5894 5894 5894 5894 5893 5893 5893 5893 5893 5892 5892 5892 5891 5891 5891 5891 5891 5891 5891 5891 5891 5891 5891 5891 5891 5891 5891 5891 5892 5892 5893 5893 5893 5894 5895 5895 5896 5897 5897
5897 5896 5896 5895 5895 5895 5894 5894 5894 5894 5894 5893 5893 5893 5893 5893 5892 5892 5892 5892 5892 5892 5892 5892 5892 5892 5892 5891 5891 5891 5892 5892 5892 5893 5893 5894 5894 5895 5895 5896 5897 5897 5897
5897 5897 5897 5896 5896 5895 5895 5895 5895 5895 5894 5894 5894 5894 5894 5894 5893 5893 5893 5893 5893 5893 5893 5893 5893 5893 5893 5892 5892 5892 5892 5892 5893 5894 5894 5894 5895 5895 5896 5897 5897 5897 5898
5898 5898 5897 5897 5896 5896 5896 5895 5895 5895 5895 5895 5895 5895 5895 5894 5894 5894 5894 5894 5894 5894 5893 5893 5894 5894 5894 5893 5894 5894 5894 5893 5894 5894 5895 5895 5896 5896 5897 5897 5898 5898 5898
5899 5898 5898 5897 5897 5896 5896 5896 5896 5896 5895 5895 5895 5895 5895 5895 5895 5895 5895 5895 5895 5894 5894 5894 5894 5894 5895 5894 5895 5895 5895 5895 5895 5896 5896 5896 5896 5897 5897 5898 5898 5898 5899
5899 5899 5898 5897 5897 5897 5896 5896 5896 5896 5896 5896 5896 5896 5896 5895 5895 5895 5895 5895 5895 5895 5895 5895 5895 5895 5896 5896 5896 5896 5896 5896 5896 5897 5897 5897 5897 5897 5898 5899 5899 5899 5899
5900 5899 5899 5898 5897 5897 5896 5896 5896 5896 5896 5896 5896 5896 5896 5896 5896 5896 5896 5896 5896 5896 5896 5896 5896 5897 5897 5897 5897 5897 5897 5897 5897 5898 5898 5898 5898 5898 5899 5899 5899 5899 5900
5902 5900 5899 5898 5897 5896 5896 5896 5896 5896 5896 5896 5896 5896 5896 5896 5896 5896 5897 5896 5897 5897 5897 5897 5897 5897 5898 5898 5898 5898 5898 5898 5898 5898 5899 5899 5899 5899 5899 5899 5900 5900 5900
5902 5901 5900 5898 5897 5896 5896 5896 5896 5896 5896 5896 5896 5896 5896 5896 5896 5896 5897 5897 5897 5897 5898 5898 5898 5898 5898 5899 5899 5899 5899 5899 5899 5899 5899 5899 5899 5899 5900 5900 5900 5900 5900
5903 5901 5900 5899 5897 5896 5896 5895 5895 5896 5896 5896 5896 5896 5896 5896 5897 5897 5897 5897 5898 5898 5898 5899 5899 5899 5899 5899 5899 5899 5900 5900 5900 5900 5900 5900 5900 5900 5900 5900 5900 5900 5900
5903 5901 5900 5898 5897 5896 5896 5896 5895 5896 5896 5896 5896 5896 5896 5896 5896 5897 5897 5897 5898 5898 5899 5899 5899 5900 5900 5900 5900 5900 5900 5900 5900 5900 5900 5900 5900 5900 5900 5900 5900 5900 5900
5904 5902 5900 5899 5897 5896 5896 5896 5896 5896 5896 5896 5896 5896 5896 5896 5896 5897 5897 5897 5898 5898 5899 5900 5900 5900 5900 5901 5901 5900 5900 5900 5900 5900 5900 5900 5900 5900 5900 5900 5900 5900 5900
5905 5903 5901 5899 5898 5897 5896 5896 5895 5895 5895 5896 5896 5896 5896 5896 5896 5897 5897 5897 5898 5899 5899 5899 5900 5900 5901 5901 5901 5901 5901 5901 5900 5900 5900 5900 5900 5900 5900 5900 5900 5899 5899
5906 5904 5901 5900 5898 5897 5896 5895 5895 5895 5895 5895 5896 5896 5896 5896 5896 5897 5897 5897 5898 5898 5899 5899 5900 5900 5900 5900 5900 5900 5900 5900 5900 5900 5900 5900 5900 5899 5899 5899 5898 5898 5898
5908 5905 5903 5901 5899 5898 5896 5896 5895 5895 5895 5895 5895 5895 5895 5896 5896 5896 5896 5897 5898 5898 5898 5899 5899 5899 5899 5899 5900 5900 5900 5900 5900 5900 5899 5899 5898 5898 5898 5897 5897 5897 5896
5909 5906 5904 5902 5900 5898 5897 5896 5895 5895 5895 5895 5895 5895 5895 5895 5895 5895 5896 5896 5897 5897 5897 5898 5898 5898 5898 5898 5899 5899 5899 5899 5899 5898 5898 5897 5897 5896 5896 5895 5895 5895 5895
5910 5908 5905 5903 5900 5899 5897 5896 5896 5895 5894 5894 5894 5894 5894 5894 5894 5894 5895 5895 5895 5896 5896 5896 5897 5897 5897 5897 5897 5897 5897 5898 5897 5897 5896 5896 5895 5894 5894 5894 5893 5892 5892
5911 5908 5905 5903 5901 5899 5898 5896 5895 5895 5894 5893 5893 5893 5893 5892 5893 5893 5893 5893 5894 5894 5894 5894 5895 5895 5895 5895 5895 5896 5895 5895 5895 5895 5894 5894 5893 5892 5891 5891 5890 5889 5889
5912 5909 5906 5904 5902 5900 5898 5896 5895 5894 5893 5893 5892 5892 5891 5891 5892 5891 5891 5892 5892 5892 5892 5892 5892 5892 5892 5892 5893 5893 5893 5893 5893 5893 5892 5891 5891 5890 5889 5888 5887 5886 5885
5912 5909 5907 5904 5902 5900 5898 5897 5895 5894 5893 5892 5892 5891 5890 5890 5890 5890 5890 5890 5890 5890 5890 5890 5889 5889 5890 5890 5890 5890 5890 5889 5889 5889 5889 5888 5888 5887 5886 5884 5884 5883 5882
5913 5910 5907 5905 5902 5900 5898 5897 5895 5894 5893 5892 5891 5890 5890 5889 5889 5888 5888 5888 5888 5887 5887 5887 5886 5886 5886 5886 5886 5886 5886 5886 5886 5885 5885 5884 5883 5883 5882 5880 5879 5878 5877